| time (UTC) | temp F | wind direction | speed knots | gust knots | rain 1hr in | rain 24hr in | rain mn in | humidity % | barometer mb |
| 20260505010016 | 64 | 225 | 2.6 | 8.7 | 0.00 | 0.00 | 0.00 | 55 | 1010.7 |
| 20260505005537 | 64 | 225 | 3.5 | 9.6 | 0.00 | 0.00 | 0.00 | 54 | 1010.5 |
| 20260505005016 | 64 | 225 | 2.6 | 7.0 | 0.00 | 0.00 | 0.00 | 55 | 1010.5 |
| 20260505004518 | 64 | 203 | 2.6 | 10.4 | 0.00 | 0.00 | 0.00 | 56 | 1010.5 |
| 20260505004016 | 64 | 225 | 2.6 | 7.0 | 0.00 | 0.00 | 0.00 | 57 | 1010.4 |
| 20260505003517 | 64 | 203 | 2.6 | 10.4 | 0.00 | 0.00 | 0.00 | 58 | 1010.3 |
| 20260505003016 | 64 | 180 | 1.7 | 7.8 | 0.00 | 0.00 | 0.00 | 59 | 1010.4 |
| 20260505002558 | 64 | 225 | 2.6 | 7.0 | 0.00 | 0.00 | 0.00 | 59 | 1010.2 |
| 20260505002037 | 64 | 225 | 2.6 | 7.8 | 0.00 | 0.00 | 0.00 | 59 | 1010.1 |
| 20260505001516 | 64 | 225 | 2.6 | 6.1 | 0.00 | 0.00 | 0.00 | 59 | 1010.1 |
| 20260505001017 | 64 | 225 | 2.6 | 7.8 | 0.00 | 0.00 | 0.00 | 59 | 1010.0 |
| 20260505000517 | 65 | 225 | 2.6 | 8.7 | 0.00 | 0.00 | 0.00 | 59 | 1009.9 |
| 20260505000017 | 65 | 225 | 2.6 | 7.0 | 0.00 | 0.00 | 0.00 | 59 | 1009.9 |
| 20260504235517 | 65 | 225 | 2.6 | 6.1 | 0.00 | 0.00 | 0.00 | 58 | 1009.8 |
| 20260504235016 | 65 | 203 | 1.7 | 5.2 | 0.00 | 0.00 | 0.00 | 58 | 1009.8 |
| 20260504234516 | 66 | 225 | 2.6 | 7.0 | 0.00 | 0.00 | 0.00 | 58 | 1009.7 |
| 20260504234038 | 66 | 225 | 1.7 | 5.2 | 0.00 | 0.00 | 0.00 | 58 | 1009.6 |
| 20260504233516 | 66 | 225 | 2.6 | 7.8 | 0.00 | 0.00 | 0.00 | 57 | 1009.5 |
| 20260504233016 | 66 | 225 | 1.7 | 7.0 | 0.00 | 0.00 | 0.00 | 57 | 1009.4 |
| 20260504232516 | 66 | 135 | 0.9 | 3.5 | 0.00 | 0.00 | 0.00 | 57 | 1009.4 |
| 20260504232016 | 67 | 135 | 0.9 | 2.6 | 0.00 | 0.00 | 0.00 | 56 | 1009.4 |
| 20260504231516 | 67 | 135 | 0.9 | 1.7 | 0.00 | 0.00 | 0.00 | 56 | 1009.3 |
| 20260504231016 | 67 | 135 | 1.7 | 7.0 | 0.00 | 0.00 | 0.00 | 55 | 1009.3 |
| 20260504230516 | 67 | 135 | 0.9 | 6.1 | 0.00 | 0.00 | 0.00 | 53 | 1009.3 |
| 20260504230017 | 68 | 158 | 0.9 | 4.3 | 0.00 | 0.00 | 0.00 | 52 | 1009.2 |
| 20260504225536 | 68 | 158 | 0.9 | 2.6 | 0.00 | 0.00 | 0.00 | 52 | 1009.2 |
| 20260504225017 | 68 | 135 | 0.9 | 2.6 | 0.00 | 0.00 | 0.00 | 53 | 1009.2 |
| 20260504224516 | 68 | 135 | 0.9 | 3.5 | 0.00 | 0.00 | 0.00 | 53 | 1009.3 |
| 20260504224016 | 68 | 180 | 0.9 | 3.5 | 0.00 | 0.00 | 0.00 | 52 | 1009.3 |
| 20260504223516 | 68 | 135 | 0.9 | 2.6 | 0.00 | 0.00 | 0.00 | 52 | 1009.2 |
| 20260504223017 | 68 | 135 | 1.7 | 7.0 | 0.00 | 0.00 | 0.00 | 52 | 1009.3 |
| 20260504222517 | 69 | 158 | 0.9 | 4.3 | 0.00 | 0.00 | 0.00 | 51 | 1009.3 |
| 20260504222016 | 69 | 180 | 1.7 | 4.3 | 0.00 | 0.00 | 0.00 | 50 | 1009.3 |
| 20260504221516 | 68 | 158 | 1.7 | 6.1 | 0.00 | 0.00 | 0.00 | 50 | 1009.3 |
| 20260504221016 | 69 | 135 | 2.6 | 7.0 | 0.00 | 0.00 | 0.00 | 52 | 1009.4 |
| 20260504220517 | 69 | 135 | 3.5 | 8.7 | 0.00 | 0.00 | 0.00 | 52 | 1009.4 |
| 20260504220018 | 70 | 135 | 1.7 | 6.1 | 0.00 | 0.00 | 0.00 | 50 | 1009.4 |
| 20260504215516 | 71 | 135 | 1.7 | 5.2 | 0.00 | 0.00 | 0.00 | 48 | 1009.5 |
| 20260504215016 | 71 | 158 | 1.7 | 7.8 | 0.00 | 0.00 | 0.00 | 46 | 1009.5 |
| 20260504214516 | 71 | 180 | 0.9 | 3.5 | 0.00 | 0.00 | 0.00 | 45 | 1009.6 |
| 20260504214016 | 71 | 135 | 0.9 | 5.2 | 0.00 | 0.00 | 0.00 | 45 | 1009.5 |
| 20260504213556 | 71 | 158 | 0.9 | 6.1 | 0.00 | 0.00 | 0.00 | 44 | 1009.6 |
| 20260504213057 | 71 | 158 | 0.9 | 3.5 | 0.00 | 0.00 | 0.00 | 45 | 1009.7 |
| 20260504212516 | 71 | 158 | 0.9 | 5.2 | 0.00 | 0.00 | 0.00 | 45 | 1009.8 |
| 20260504212016 | 72 | 135 | 2.6 | 7.0 | 0.00 | 0.00 | 0.00 | 43 | 1009.7 |
| 20260504211516 | 72 | 135 | 1.7 | 6.1 | 0.00 | 0.00 | 0.00 | 44 | 1009.8 |
| 20260504211036 | 72 | 135 | 0.9 | 4.3 | 0.00 | 0.00 | 0.00 | 45 | 1009.8 |
| 20260504210517 | 73 | 135 | 0.9 | 7.0 | 0.00 | 0.00 | 0.00 | 44 | 1009.7 |
| 20260504210016 | 73 | 135 | 2.6 | 7.0 | 0.00 | 0.00 | 0.00 | 43 | 1009.7 |
| 20260504205516 | 74 | 135 | 1.7 | 7.0 | 0.00 | 0.00 | 0.00 | 41 | 1009.6 |
| 20260504205016 | 75 | 135 | 1.7 | 7.8 | 0.00 | 0.00 | 0.00 | 39 | 1009.6 |
| 20260504204517 | 75 | 225 | 2.6 | 7.8 | 0.00 | 0.00 | 0.00 | 36 | 1009.6 |
| 20260504204016 | 75 | 158 | 1.7 | 7.0 | 0.00 | 0.00 | 0.00 | 37 | 1009.6 |
| 20260504203516 | 75 | 158 | 0.9 | 8.7 | 0.00 | 0.00 | 0.00 | 37 | 1009.7 |
| 20260504203016 | 76 | 180 | 0.9 | 4.3 | 0.00 | 0.00 | 0.00 | 38 | 1009.7 |
| 20260504202517 | 76 | 203 | 1.7 | 9.6 | 0.00 | 0.00 | 0.00 | 37 | 1009.8 |
| 20260504202016 | 76 | 225 | 1.7 | 7.0 | 0.00 | 0.00 | 0.00 | 36 | 1009.7 |
| 20260504201516 | 75 | 248 | 2.6 | 7.0 | 0.00 | 0.00 | 0.00 | 36 | 1009.7 |
| 20260504201016 | 76 | 225 | 2.6 | 7.0 | 0.00 | 0.00 | 0.00 | 36 | 1009.8 |
| 20260504200517 | 76 | 225 | 2.6 | 10.4 | 0.00 | 0.00 | 0.00 | 34 | 1009.8 |
| 20260504200016 | 75 | 248 | 5.2 | 13.9 | 0.00 | 0.00 | 0.00 | 32 | 1009.7 |
| 20260504195516 | 76 | 203 | 4.3 | 11.3 | 0.00 | 0.00 | 0.00 | 33 | 1009.9 |
| 20260504195016 | 76 | 180 | 2.6 | 7.0 | 0.00 | 0.00 | 0.00 | 34 | 1009.9 |
| 20260504194516 | 75 | 225 | 3.5 | 9.6 | 0.00 | 0.00 | 0.00 | 33 | 1009.9 |
| 20260504194016 | 75 | 225 | 5.2 | 11.3 | 0.00 | 0.00 | 0.00 | 32 | 1010.0 |
| 20260504193516 | 74 | 225 | 3.5 | 10.4 | 0.00 | 0.00 | 0.00 | 32 | 1010.0 |
| 20260504193016 | 74 | 225 | 7.0 | 14.8 | 0.00 | 0.00 | 0.00 | 33 | 1010.1 |
| 20260504192516 | 74 | 225 | 7.0 | 15.6 | 0.00 | 0.00 | 0.00 | 33 | 1010.0 |
| 20260504192036 | 74 | 225 | 6.1 | 14.8 | 0.00 | 0.00 | 0.00 | 32 | 1010.2 |
| 20260504191516 | 74 | 225 | 4.3 | 13.0 | 0.00 | 0.00 | 0.00 | 34 | 1010.2 |
| 20260504191018 | 74 | 203 | 5.2 | 12.2 | 0.00 | 0.00 | 0.00 | 33 | 1010.3 |
| 20260504190516 | 74 | 225 | 4.3 | 11.3 | 0.00 | 0.00 | 0.00 | 34 | 1010.3 |
| 20260504190016 | 74 | 225 | 5.2 | 11.3 | 0.00 | 0.00 | 0.00 | 34 | 1010.5 |
| 20260504185516 | 73 | 225 | 4.3 | 13.9 | 0.00 | 0.00 | 0.00 | 34 | 1010.5 |
| 20260504185017 | 73 | 225 | 4.3 | 11.3 | 0.00 | 0.00 | 0.00 | 33 | 1010.7 |
| 20260504184516 | 73 | 225 | 5.2 | 10.4 | 0.00 | 0.00 | 0.00 | 33 | 1010.8 |
| 20260504184016 | 72 | 225 | 5.2 | 13.0 | 0.00 | 0.00 | 0.00 | 34 | 1010.9 |
| 20260504183537 | 72 | 225 | 5.2 | 12.2 | 0.00 | 0.00 | 0.00 | 35 | 1010.9 |
| 20260504183016 | 73 | 225 | 6.1 | 11.3 | 0.00 | 0.00 | 0.00 | 34 | 1010.8 |
| 20260504182517 | 73 | 225 | 6.1 | 12.2 | 0.00 | 0.00 | 0.00 | 34 | 1011.0 |
| 20260504182016 | 73 | 225 | 4.3 | 11.3 | 0.00 | 0.00 | 0.00 | 36 | 1011.0 |
| 20260504181516 | 73 | 225 | 5.2 | 12.2 | 0.00 | 0.00 | 0.00 | 34 | 1011.1 |
| 20260504181017 | 72 | 225 | 6.1 | 15.6 | 0.00 | 0.00 | 0.00 | 36 | 1011.0 |
| 20260504180516 | 72 | 225 | 6.1 | 11.3 | 0.00 | 0.00 | 0.00 | 35 | 1011.1 |
| 20260504180016 | 72 | 203 | 7.0 | 13.9 | 0.00 | 0.00 | 0.00 | 35 | 1011.3 |
| 20260504175516 | 72 | 225 | 6.1 | 11.3 | 0.00 | 0.00 | 0.00 | 34 | 1011.3 |
| 20260504175016 | 72 | 225 | 6.1 | 13.0 | 0.00 | 0.00 | 0.00 | 35 | 1011.4 |
| 20260504174517 | 72 | 225 | 4.3 | 13.9 | 0.00 | 0.00 | 0.00 | 36 | 1011.4 |
| 20260504174017 | 72 | 225 | 4.3 | 13.9 | 0.00 | 0.00 | 0.00 | 36 | 1011.5 |
| 20260504173516 | 72 | 225 | 5.2 | 13.9 | 0.00 | 0.00 | 0.00 | 35 | 1011.5 |
| 20260504173016 | 71 | 225 | 4.3 | 10.4 | 0.00 | 0.00 | 0.00 | 36 | 1011.5 |
| 20260504172516 | 70 | 225 | 7.8 | 14.8 | 0.00 | 0.00 | 0.00 | 35 | 1011.5 |
| 20260504172037 | 71 | 225 | 6.1 | 15.6 | 0.00 | 0.00 | 0.00 | 36 | 1011.6 |
| 20260504171557 | 71 | 225 | 7.0 | 13.0 | 0.00 | 0.00 | 0.00 | 36 | 1011.7 |
| 20260504171016 | 70 | 225 | 7.8 | 15.6 | 0.00 | 0.00 | 0.00 | 36 | 1011.7 |
| 20260504170535 | 70 | 203 | 5.2 | 10.4 | 0.00 | 0.00 | 0.00 | 37 | 1011.8 |
| 20260504151016 | 67 | 225 | 7.0 | 13.9 | 0.00 | 0.00 | 0.00 | 39 | 1013.4 |
| 20260504150517 | 67 | 225 | 4.3 | 12.2 | 0.00 | 0.00 | 0.00 | 40 | 1013.4 |
| 20260504141015 | 63 | 225 | 7.0 | 14.8 | 0.00 | 0.00 | 0.00 | 47 | 1013.6 |
| 20260504140537 | 63 | 203 | 6.1 | 11.3 | 0.00 | 0.00 | 0.00 | 47 | 1013.5 |
| 20260504130535 | 60 | 203 | 4.3 | 11.3 | 0.00 | 0.00 | 0.00 | 55 | 1014.1 |
| 20260504110518 | 52 | 225 | 4.3 | 12.2 | 0.00 | 0.00 | 0.00 | 64 | 1014.3 |
| 20260504100517 | 51 | 225 | 4.3 | 8.7 | 0.00 | 0.00 | 0.00 | 59 | 1014.3 |
| 20260504081517 | 53 | 203 | 1.7 | 7.0 | 0.00 | 0.00 | 0.00 | 49 | 1013.9 |
| 20260504081017 | 53 | 203 | 2.6 | 4.3 | 0.00 | 0.00 | 0.00 | 49 | 1013.9 |
| 20260504080518 | 53 | 225 | 3.5 | 7.8 | 0.00 | 0.00 | 0.00 | 48 | 1013.8 |
| 20260504050537 | 54 | 225 | 3.5 | 7.0 | 0.00 | 0.00 | 0.00 | 46 | 1013.2 |
| 20260504050018 | 54 | 225 | 4.3 | 8.7 | 0.00 | 0.00 | 0.00 | 46 | 1013.2 |
| 20260504045517 | 54 | 248 | 4.3 | 10.4 | 0.00 | 0.00 | 0.00 | 46 | 1013.1 |
| 20260504045018 | 54 | 225 | 3.5 | 7.8 | 0.00 | 0.00 | 0.00 | 46 | 1013.1 |
| 20260504044517 | 54 | 248 | 4.3 | 8.7 | 0.00 | 0.00 | 0.00 | 46 | 1013.1 |
| 20260504044018 | 54 | 225 | 4.3 | 9.6 | 0.00 | 0.00 | 0.00 | 45 | 1013.1 |
| 20260504043517 | 54 | 225 | 2.6 | 7.8 | 0.00 | 0.00 | 0.00 | 45 | 1013.0 |
| 20260504043017 | 54 | 225 | 3.5 | 7.8 | 0.00 | 0.00 | 0.00 | 45 | 1013.0 |
| 20260504042517 | 55 | 248 | 4.3 | 8.7 | 0.00 | 0.00 | 0.00 | 45 | 1012.9 |
| 20260504042056 | 55 | 225 | 4.3 | 7.8 | 0.00 | 0.00 | 0.00 | 45 | 1013.0 |
| 20260504041516 | 55 | 225 | 3.5 | 7.0 | 0.00 | 0.00 | 0.00 | 44 | 1013.0 |
| 20260504041017 | 55 | 248 | 4.3 | 7.8 | 0.00 | 0.00 | 0.00 | 44 | 1012.9 |
| 20260504040517 | 55 | 225 | 3.5 | 9.6 | 0.00 | 0.00 | 0.00 | 44 | 1012.9 |
| 20260504040016 | 55 | 248 | 3.5 | 8.7 | 0.00 | 0.00 | 0.00 | 44 | 1012.9 |
| 20260504035518 | 55 | 225 | 3.5 | 8.7 | 0.00 | 0.00 | 0.00 | 44 | 1012.9 |
| 20260504035017 | 55 | 248 | 3.5 | 8.7 | 0.00 | 0.00 | 0.00 | 44 | 1012.8 |
| 20260504034517 | 55 | 248 | 3.5 | 7.0 | 0.00 | 0.00 | 0.00 | 44 | 1012.8 |
| 20260504034038 | 55 | 225 | 3.5 | 7.0 | 0.00 | 0.00 | 0.00 | 43 | 1012.8 |
| 20260504033517 | 55 | 225 | 4.3 | 8.7 | 0.00 | 0.00 | 0.00 | 43 | 1012.9 |
| 20260504033017 | 55 | 248 | 4.3 | 8.7 | 0.00 | 0.00 | 0.00 | 43 | 1012.8 |
| 20260504032517 | 56 | 248 | 3.5 | 7.8 | 0.00 | 0.00 | 0.00 | 42 | 1012.7 |
| 20260504032017 | 56 | 248 | 4.3 | 8.7 | 0.00 | 0.00 | 0.00 | 42 | 1012.7 |
| 20260504031518 | 56 | 225 | 2.6 | 5.2 | 0.00 | 0.00 | 0.00 | 42 | 1012.6 |
| 20260504031017 | 56 | 225 | 2.6 | 7.0 | 0.00 | 0.00 | 0.00 | 41 | 1012.6 |
| 20260504030517 | 56 | 248 | 3.5 | 7.8 | 0.00 | 0.00 | 0.00 | 41 | 1012.7 |
| 20260504030017 | 56 | 248 | 3.5 | 10.4 | 0.00 | 0.00 | 0.00 | 41 | 1012.6 |
| 20260504025517 | 56 | 248 | 4.3 | 9.6 | 0.00 | 0.00 | 0.00 | 41 | 1012.6 |
| 20260504025038 | 56 | 248 | 4.3 | 8.7 | 0.00 | 0.00 | 0.00 | 41 | 1012.6 |
| 20260504024537 | 56 | 225 | 3.5 | 8.7 | 0.00 | 0.00 | 0.00 | 40 | 1012.7 |
| 20260504024017 | 56 | 225 | 4.3 | 8.7 | 0.00 | 0.00 | 0.00 | 40 | 1012.6 |
| 20260504023517 | 56 | 225 | 2.6 | 7.0 | 0.00 | 0.00 | 0.00 | 40 | 1012.7 |
| 20260504023037 | 56 | 225 | 3.5 | 7.0 | 0.00 | 0.00 | 0.00 | 40 | 1012.6 |
| 20260504022517 | 57 | 225 | 2.6 | 7.8 | 0.00 | 0.00 | 0.00 | 39 | 1012.7 |
| 20260504022037 | 57 | 225 | 1.7 | 5.2 | 0.00 | 0.00 | 0.00 | 39 | 1012.7 |
| 20260504021517 | 57 | 225 | 2.6 | 7.0 | 0.00 | 0.00 | 0.00 | 38 | 1012.7 |
| 20260504021017 | 57 | 248 | 3.5 | 9.6 | 0.00 | 0.00 | 0.00 | 38 | 1012.7 |
| 20260504020517 | 57 | 225 | 4.3 | 10.4 | 0.00 | 0.00 | 0.00 | 38 | 1012.7 |
| 20260504020017 | 57 | 225 | 3.5 | 7.8 | 0.00 | 0.00 | 0.00 | 38 | 1012.7 |
| 20260504015518 | 57 | 225 | 2.6 | 7.0 | 0.00 | 0.00 | 0.00 | 38 | 1012.7 |
| 20260504015017 | 58 | 225 | 2.6 | 7.8 | 0.00 | 0.00 | 0.00 | 37 | 1012.7 |
| 20260504014517 | 58 | 225 | 2.6 | 7.0 | 0.00 | 0.00 | 0.00 | 36 | 1012.6 |
| 20260504014017 | 58 | 225 | 2.6 | 7.0 | 0.00 | 0.00 | 0.00 | 36 | 1012.5 |
| 20260504013518 | 58 | 248 | 2.6 | 7.0 | 0.00 | 0.00 | 0.00 | 36 | 1012.4 |
| 20260504013037 | 58 | 248 | 3.5 | 7.0 | 0.00 | 0.00 | 0.00 | 36 | 1012.4 |
| 20260504012518 | 58 | 248 | 2.6 | 5.2 | 0.00 | 0.00 | 0.00 | 36 | 1012.3 |
| 20260504012017 | 58 | 248 | 3.5 | 7.0 | 0.00 | 0.00 | 0.00 | 35 | 1012.3 |
| 20260504011558 | 58 | 248 | 2.6 | 4.3 | 0.00 | 0.00 | 0.00 | 35 | 1012.2 |
| 20260504011038 | 58 | 248 | 2.6 | 5.2 | 0.00 | 0.00 | 0.00 | 35 | 1012.1 |
| 20260504010517 | 58 | 248 | 1.7 | 4.3 | 0.00 | 0.00 | 0.00 | 35 | 1012.1 |